Voltar ao catálogo

SL-12 R/B(2)

AtivoGEO
NORAD 22966·ROCKET BODY·🇷🇺 Russia

Lançado Jan 20, 1994 de Baikonur Cosmodrome

Loading…

TLE

AtualizadoSource: Space-Track

Época: Sep 14, 2026, 12:07 UTC

1 22966U 94002D   26257.50545858 -.00000258  00000-0  00000+0 0  9997
2 22966  13.8819 343.4387 0040836 151.5187 202.2015  0.99473071117964

Acompanhe SL-12 R/B(2) em tempo real com AllMySat

Download on the App Store